Ephrata, WA
on Monday, November 26, 2012

Monday
Previous Day Next Day
Daily Summary
 ActualAverageRecord
Temperature
Mean Temperature °F 33°F  
Max Temperature 38°F 40°F 57°F (1998)
Min Temperature 26°F 26°F -4°F (1985)
Degree Days
Heating Degree Days 33 32  
Month to date heating degree days 640 705  
Since 1 July heating degree days 1135 1286  
Cooling Degree Days 0 0  
Month to date cooling degree days 0 0  
Year to date cooling degree days 837 772  
Moisture
Dew Point 29°F   
Average Humidity 85    
Maximum Humidity 100    
Minimum Humidity 70    
Precipitation
Precipitation 0.00 in 0.04 in 0.42 in (1991)
Month to date precipitation 1.00 0.90  
Year to date precipitation 6.86 6.45  
Snow
Snow 0.00 in 0.10 in 0.00 in (2001)
Snow Depth in   
Wind
Wind Speed 8 mph   
Max Wind Speed 13 mph   
Max Gust Speed 15 mph   
Visibility 7 miles   
Events Fog   

Key: T is trace of precipitation, MM is missing value
Source: NWS Daily Summary
Time(PST)TemperatureDew PointHumidity Pressure Visibility Wind DirectionWind SpeedGust SpeedPrecipitationEvents Conditions
12:53 AM 30.0°F 28.9°F 96% 30.37 in 0.2 miles North 9.2 mph - N/A Fog Light Freezing Fog
1:53 AM 30.0°F 28.9°F 96% 30.37 in 0.2 miles North 10.4 mph - N/A Fog Light Freezing Fog
2:12 AM 30.2°F 28.4°F 93% 30.33 in 0.5 miles North 9.2 mph - N/A Fog Light Freezing Fog
2:35 AM 30.2°F 28.4°F 93% 30.32 in 0.2 miles North 5.8 mph - N/A Fog Light Freezing Fog
2:48 AM 30.2°F 28.4°F 93% 30.32 in 0.5 miles North 5.8 mph - N/A Fog Light Freezing Fog
2:53 AM 28.9°F 28.9°F 100% 30.36 in 0.2 miles North 4.6 mph - N/A Fog Light Freezing Fog
3:35 AM 26.6°F 24.8°F 93% 30.31 in 0.8 miles North 5.8 mph - N/A   Mist
3:53 AM 26.1°F 25.0°F 96% 30.35 in 0.5 miles North 6.9 mph - N/A Fog Light Freezing Fog
4:00 AM 26.6°F 26.6°F 100% 30.30 in 0.2 miles North 5.8 mph - N/A Fog Light Freezing Fog
4:08 AM 26.6°F 24.8°F 93% 30.30 in 0.5 miles North 5.8 mph - N/A Fog Light Freezing Fog
4:18 AM 26.6°F 24.8°F 93% 30.29 in 2.0 miles North 6.9 mph - N/A   Overcast
4:25 AM 26.6°F 24.8°F 93% 30.29 in 10.0 miles North 6.9 mph - N/A   Overcast
4:53 AM 28.9°F 27.0°F 92% 30.34 in 10.0 miles North 8.1 mph - N/A   Overcast
5:53 AM 30.9°F 30.0°F 96% 30.34 in 8.0 miles NNE 8.1 mph - N/A   Overcast
6:53 AM 30.9°F 30.0°F 96% 30.33 in 10.0 miles North 9.2 mph - N/A   Overcast
7:24 AM 30.2°F 30.2°F 100% 30.29 in 10.0 miles North 9.2 mph - N/A   Overcast
7:53 AM 30.9°F 30.0°F 96% 30.34 in 10.0 miles North 9.2 mph - N/A   Overcast
8:19 AM 32.0°F 30.2°F 93% 30.28 in 10.0 miles North 9.2 mph - N/A   Overcast
8:53 AM 32.0°F 30.9°F 96% 30.33 in 10.0 miles North 11.5 mph - N/A   Mostly Cloudy
9:53 AM 32.0°F 30.0°F 92% 30.33 in 10.0 miles North 8.1 mph - N/A   Overcast
10:53 AM 35.1°F 30.0°F 82% 30.32 in 10.0 miles North 6.9 mph - N/A   Mostly Cloudy
11:40 AM 35.6°F 30.2°F 81% 30.25 in 10.0 miles NNW 8.1 mph - N/A   Mostly Cloudy
11:53 AM 35.1°F 30.0°F 82% 30.29 in 10.0 miles NNW 10.4 mph - N/A   Overcast
12:03 PM 35.6°F 30.2°F 81% 30.24 in 10.0 miles NNW 9.2 mph - N/A   Overcast
12:53 PM 36.0°F 28.9°F 76% 30.27 in 10.0 miles NNW 9.2 mph - N/A   Overcast
1:53 PM 37.0°F 30.0°F 76% 30.24 in 10.0 miles NNE 6.9 mph - N/A   Overcast
2:53 PM 37.0°F 28.9°F 73% 30.24 in 10.0 miles North 8.1 mph - N/A   Overcast
3:53 PM 37.0°F 30.0°F 76% 30.23 in 10.0 miles North 6.9 mph - N/A   Overcast
4:53 PM 36.0°F 28.9°F 76% 30.24 in 10.0 miles North 8.1 mph - N/A   Overcast
5:53 PM 35.1°F 28.9°F 78% 30.24 in 10.0 miles NNW 8.1 mph - N/A   Overcast
6:53 PM 35.1°F 30.0°F 82% 30.25 in 10.0 miles North 8.1 mph - N/A   Overcast
7:53 PM 35.1°F 28.9°F 78% 30.25 in 10.0 miles North 6.9 mph - N/A   Overcast
8:53 PM 34.0°F 28.9°F 82% 30.25 in 10.0 miles North 4.6 mph - N/A   Overcast
9:53 PM 33.1°F 28.0°F 82% 30.27 in 10.0 miles NW 5.8 mph - N/A   Mostly Cloudy
10:10 PM 33.8°F 28.4°F 81% 30.22 in 10.0 miles NW 5.8 mph - N/A   Partly Cloudy
10:53 PM 32.0°F 28.0°F 85% 30.26 in 10.0 miles NNW 4.6 mph - N/A   Clear
11:53 PM 30.0°F 27.0°F 88% 30.26 in 10.0 miles NNW 4.6 mph - N/A   Clear
Moon Phase
Nov. 26 Nov. 28 Dec. 06 Dec. 13 Dec. 20
Sunrise:07:18 AM (PST) Moon Rise:03:10 PM (PST)11/26
Sunset:04:12 PM (PST) Moon Set:05:29 AM (PST)11/26

Copyright © 2014 The Weather Underground, Inc.